Regional Weather Roundup
Issued by NWS

Home | Current Version | Previous Version | Graphics & Text | Print | Product List | Glossary On
Versions: 1 2 3 4 5 6 7 8 9 10 11 12 13 14 15 16 17 18 19 20 21 22 23 24 25 26 27 28 29 30 31 32 33 34 35 36 37 38 39 40 41 42 43 44 45 46 47 48 49 50
000
ASUS45 KSLC 211110
RWRUT

UTAH REGIONAL WEATHER ROUNDUP
NATIONAL WEATHER SERVICE SALT LAKE CITY UT
400 AM MST FRI NOV 21 2014

UTZ001>011-023>025-211200-

NORTHERN UTAH

CITY           SKY/WX    TMP DP  RH WIND       PRES   REMARKS
BRIGHAM CITY   PTCLDY    26  22  82 CALM      30.03S
HILL AFB       PTCLDY    32  20  62 E15       30.03R WCI  21
LOGAN          CLEAR     24  20  84 CALM      30.04S
OGDEN          CLEAR     30  22  72 S7        30.02S WCI  23
PROVO AIRPORT  PTCLDY    23  19  86 CALM      30.04S
SALT LAKE CITY PTCLDY    28  23  81 S3        30.03R
VERNAL         PTCLDY    22  10  60 W3        30.05S
WENDOVER       PTCLDY    25  16  68 E3        30.02S
HEBER CITY     PTCLDY    16  12  86 CALM      30.05R
WEST JORDAN    CLEAR     28  23  80 CALM      30.04R

$$

UTZ012>022-026-027-211200-

SOUTHERN/CENTRAL UTAH

CITY           SKY/WX    TMP DP  RH WIND       PRES   REMARKS
BLANDING       MOCLDY    28  17  63 N3        30.12R
BRYCE CANYON   MOCLDY    22  15  75 W3        30.05S
CEDAR CITY     MOCLDY    28  22  78 E5        29.98S WCI  23
DELTA          CLOUDY    25  17  73 NE5       30.00S WCI  19
MILFORD        MOCLDY    30  21  69 CALM      29.98F
MOAB/CYNLANDS  CLEAR     21   8  57 CALM      30.05S
PRICE          MOCLDY    23  12  62 N9        30.05S WCI  13
ST GEORGE      MOSUNNY   41  14  33 SW3       29.99S
KANAB          MOCLDY    34  16  47 NW12      30.03F WCI  25

$$

REGIONAL REPORTS     COLORADO/ARIZONA

CITY           SKY/WX    TMP DP  RH WIND       PRES   REMARKS
CRAIG, CO      CLEAR     21  17  84 S5        30.04S WCI  15
GRAND JUNCTION CLEAR     23  15  71 E6        30.06S WCI  16
RIFLE          CLEAR     28  20  71 SW3       30.07F
MONTROSE       CLEAR     21  17  84 S8        30.08F WCI  11
CORTEZ         CLEAR     20  16  84 CALM      30.05F
PAGE, AZ       NOT AVBL
GRAND CANYON   CLOUDY    29  16  58 E3        30.02F
KINGMAN        CLOUDY    45  18  34 SE7       29.93F
FLAGSTAFF      CLOUDY    28  15  58 CALM      30.02F

$$

REGIONAL REPORTS    NEVADA/IDAHO/WYOMING

CITY           SKY/WX    TMP DP  RH WIND       PRES   REMARKS
LAS VEGAS, NV  MOCLDY    52  22  30 S9        29.87F
ELY            MOCLDY    21  12  68 S8        30.00S WCI  11
ELKO           PTCLDY    26  23  88 E3        29.98F
POCATELLO, ID  CLEAR     21  20  96 W5        30.03F FOG     WCI  15
BURLEY         CLEAR     24  21  88 E3        30.01S
EVANSTON, WY   PTCLDY    28  13  53 S3        30.02S
ROCK SPRINGS   PTCLDY    26  14  60 SW9       30.01S WCI  17

$$


USA.gov is the U.S. government's official web portal to all federal, state and local government web resources and services.